Temperature
14 14 14 14 14 14 14 14 15 15 14 13 12 12 12 12 12 12 12 12 12 12 12 12 12 12 12 12 12 12 12 12 12 11 11 11 11 11
15 14 14 14 14 14 14 14 14 14 14 13 12 12 12 12 12 12 12 12 12 12 12 12 12 12 12 12 12 12 11 11 11 11 11 11 11 11
14 14 14 14 14 14 14 14 14 14 13 13 12 12 12 12 12 12 12 12 12 12 12 12 12 12 12 11 11 11 11 11 11 11 11 11 10 10
14 14 14 14 14 14 14 14 14 13 13 13 12 12 12 12 12 12 11 11 11 11 11 11 11 11 11 11 11 11 11 11 11 10 10 10 10 10
14 14 14 14 14 14 14 13 13 13 13 13 12 12 12 12 12 11 11 11 11 11 11 11 11 11 11 11 10 10 10 10 10 10 10 10 10 10
14 14 14 14 13 13 13 13 13 13 13 12 12 12 12 12 11 11 11 11 10 10 10 10 10 10 10 10 10 10 10 10 10 9 9 9 9 9
14 14 14 14 14 13 13 13 13 13 13 12 12 12 11 11 11 11 11 10 10 10 10 9 9 9 9 9 9 9 9 9 9 9 9 9 9 8
14 14 14 14 14 13 13 13 13 13 12 12 12 12 11 11 11 11 10 10 10 10 9 9 9 9 9 9 9 9 9 8 8 8 8 8 8 8
14 14 14 13 13 13 13 13 13 13 13 12 12 11 11 11 11 10 10 10 10 10 9 9 9 8 8 8 9 8 8 8 8 8 8 8 8 8
14 13 13 13 13 13 13 13 12 12 12 12 12 11 11 11 11 11 10 10 10 10 9 8 8 8 8 8 8 8 8 8 8 7 7 7 7 7
13 13 13 13 13 13 12 12 12 12 12 12 12 11 11 11 11 11 10 10 9 9 9 8 8 7 7 7 7 7 7 7 7 7 7 7 7 6
13 13 13 13 13 13 12 12 12 11 11 11 11 11 11 11 11 10 10 9 9 8 8 8 7 7 7 7 7 6 6 6 6 6 6 6 6 6
13 13 13 13 13 13 12 12 12 11 11 11 11 10 10 10 10 10 10 9 9 8 8 8 7 7 7 7 6 6 6 6 5 5 5 5 5 5
13 13 13 13 13 12 12 12 12 11 11 10 10 10 10 10 10 9 9 9 9 8 8 7 7 7 6 6 6 6 5 5 5 5 5 5 4 4
13 13 13 12 12 12 12 12 11 11 10 10 10 10 10 9 9 9 9 8 8 8 8 7 7 6 6 5 5 5 5 5 5 4 4 4 4 4
13 13 12 12 12 12 11 11 11 11 10 10 10 9 9 9 9 8 8 8 7 7 7 7 6 6 6 5 5 5 4 4 4 4 3 3 3 3
12 12 12 12 11 11 11 11 11 10 10 10 9 9 9 8 8 8 8 7 7 6 6 6 6 6 5 5 4 4 4 3 3 3 3 3 3 2
12 12 11 11 11 11 11 11 10 10 10 10 9 9 8 8 8 7 7 7 6 6 6 6 5 5 5 5 4 4 3 3 3 3 2 2 2 2
11 11 11 11 11 11 10 10 10 10 10 9 9 9 8 8 7 7 7 6 6 5 5 5 5 4 4 4 4 4 3 3 2 2 2 2 1 1
11 11 11 11 11 10 10 10 10 10 9 9 9 8 8 7 7 7 6 6 5 5 5 4 4 4 4 3 3 3 3 2 2 2 2 1 1 1
11 11 10 10 10 10 10 10 9 9 9 9 8 8 8 7 7 6 6 5 5 4 4 4 4 4 3 3 3 3 2 2 2 1 1 1 1 1
10 10 10 10 10 10 9 9 9 9 9 8 8 8 7 7 6 6 5 5 4 4 4 3 3 3 3 2 2 2 2 2 2 1 1 1 0 -0
10 10 10 10 9 9 9 9 9 8 8 8 8 7 7 6 6 5 5 4 4 4 3 3 3 3 2 2 2 2 1 1 1 1 1 1 0 0
Wind_Speed
1 1 1 1 1 1 1 0 1 1 3 3 3 4 4 6 6 7 9 12 12 13 13 14 15 15 16 16 16 16 16 16 16 16 16 16 16 16
1 2 2 2 2 1 1 0 1 1 2 3 3 4 4 4 6 7 9 11 13 12 12 13 13 14 14 15 15 15 15 15 15 15 15 16 16 15
3 3 3 2 2 2 2 2 2 2 3 4 3 4 4 4 5 5 6 7 10 12 12 12 12 13 13 14 14 14 15 14 14 15 15 15 15 15
3 3 3 3 3 3 2 2 2 2 2 4 4 3 3 4 3 4 4 6 7 11 11 11 12 12 12 12 13 13 14 14 14 14 14 14 14 14
3 3 3 3 3 3 3 3 3 3 3 3 4 3 2 3 3 3 4 4 5 6 8 9 10 10 11 11 11 12 12 12 12 12 13 13 13 13
4 3 3 3 3 3 3 3 3 3 3 3 3 3 2 2 1 2 2 2 2 3 4 5 6 7 9 10 10 10 10 10 10 11 11 12 12 12
4 4 4 5 6 3 2 3 3 3 3 3 2 2 2 1 1 1 1 1 2 3 2 3 3 4 5 6 8 8 8 8 9 10 10 10 10 11
5 5 5 5 6 5 6 5 3 2 2 3 2 2 1 1 1 0 0 0 1 2 2 2 2 2 4 5 7 7 8 8 8 9 9 9 9 10
4 4 4 4 5 5 6 6 4 3 2 1 2 1 1 1 0 0 0 1 1 2 2 1 2 2 2 5 7 6 7 7 8 8 9 9 9 9
4 4 4 4 4 4 5 4 3 3 2 1 2 2 2 2 0 1 0 0 1 2 2 2 2 2 1 3 6 5 5 6 7 8 8 9 9 9
3 3 4 4 5 4 4 4 4 4 5 5 6 6 7 6 3 0 0 1 0 1 1 2 2 2 1 0 3 3 3 4 5 7 8 9 10 9
4 4 3 3 6 5 5 4 4 4 4 5 4 4 3 4 2 1 1 1 1 1 2 2 2 2 2 1 2 2 2 2 2 3 6 8 10 8
4 4 4 7 6 4 3 3 2 2 3 3 3 3 2 2 2 2 2 2 2 1 2 2 2 3 3 3 2 2 3 4 4 3 3 5 6 7
4 4 5 10 8 5 4 4 5 3 3 3 3 2 2 2 2 3 3 3 3 3 2 2 2 3 4 4 3 3 3 4 4 5 5 4 3 2
3 5 7 9 8 6 5 5 5 3 3 3 2 2 2 2 2 2 2 2 3 3 3 3 3 3 4 4 4 4 4 4 4 5 5 5 5 5
5 7 8 6 4 4 6 5 3 2 3 2 2 2 2 2 2 1 1 1 1 1 2 2 3 3 3 3 4 4 4 4 4 5 5 5 6 6
7 6 5 5 5 4 4 4 3 3 3 2 2 2 2 2 1 1 1 1 1 1 1 2 2 2 2 4 3 4 4 4 5 5 5 5 5 6
8 6 6 6 5 5 5 4 4 3 3 3 3 3 2 2 1 1 1 1 2 1 1 1 1 1 2 0 2 4 4 5 5 5 5 6 6 6
6 6 6 5 5 5 5 4 4 4 3 3 3 3 2 2 2 2 1 1 1 2 1 1 2 3 4 4 1 1 5 5 5 5 5 6 7 6
5 5 5 5 5 5 5 4 4 4 4 4 3 3 3 2 2 2 1 2 2 2 2 1 2 3 4 5 5 4 3 5 5 6 6 6 6 7
5 5 5 5 5 4 4 4 4 4 4 3 3 3 3 2 2 2 2 2 2 2 2 2 2 3 4 3 4 4 3 2 4 5 6 6 7 7
5 5 5 4 4 4 4 4 4 4 4 3 3 3 3 3 2 2 2 2 2 2 2 2 2 2 2 4 5 5 5 4 3 5 5 5 5 6
5 5 5 4 4 4 4 5 5 4 4 3 3 3 3 3 2 2 2 2 2 2 2 2 2 2 3 4 5 5 6 5 5 5 4 4 7 10
Wind_Direction
103 103 109 110 134 109 128 266 305 134 111 91 78 62 65 65 50 63 65 64 61 60 59 58 57 55 53 53 52 50 49 48 48 46 45 44 42 41
98 101 99 109 100 105 120 100 349 30 99 97 89 79 63 70 66 70 75 76 64 60 60 59 59 57 55 53 51 50 48 47 46 45 43 42 40 38
135 123 111 102 114 107 103 92 77 83 113 108 97 90 81 72 76 75 75 73 71 63 60 61 61 59 56 55 53 51 49 47 46 44 42 40 38 36
134 127 124 125 118 106 101 97 90 89 122 118 111 95 77 73 69 74 79 76 75 72 67 65 64 59 56 55 53 52 50 47 45 42 39 37 35 33
127 125 131 136 132 115 109 104 101 101 104 123 112 99 90 81 81 79 85 80 78 89 83 77 69 63 57 53 50 48 47 45 42 38 35 32 30 28
126 122 121 127 127 124 123 116 114 114 112 119 118 116 100 82 93 88 91 92 70 63 77 87 87 82 68 56 48 44 42 39 36 33 30 27 25 24
132 124 109 86 58 65 89 117 127 131 129 124 119 112 97 82 52 41 85 85 80 33 42 63 72 61 71 64 45 37 36 33 29 25 23 20 18 16
147 139 130 126 112 98 76 65 58 114 131 133 129 128 103 80 44 347 26 317 72 38 353 45 46 43 51 47 47 41 34 28 22 17 13 11 9 7
160 151 141 141 152 144 134 133 103 58 22 86 118 91 75 52 342 225 353 358 26 37 350 15 31 31 52 65 60 44 35 27 20 14 10 6 2 358
168 164 164 162 160 159 147 138 126 113 112 116 91 65 44 34 4 327 331 74 88 69 1 344 4 353 22 70 75 51 40 32 24 18 12 3 353 345
167 166 175 172 134 165 167 156 144 128 98 85 68 74 64 49 22 89 137 222 327 97 32 332 344 329 303 61 84 83 61 39 24 16 10 2 349 334
165 159 139 158 144 180 188 180 173 160 151 139 128 128 109 93 72 30 346 314 328 29 26 323 332 327 309 8 15 12 16 30 17 19 10 3 353 341
176 172 156 145 149 166 205 186 153 157 158 152 142 130 115 94 83 64 35 359 346 6 11 310 314 311 308 316 338 353 348 348 344 345 356 2 356 348
180 174 150 144 147 150 156 127 129 163 169 166 160 149 135 108 82 70 64 58 38 16 359 329 319 314 308 307 318 336 337 339 338 338 341 342 325 316
160 117 126 142 146 144 143 148 164 177 176 179 177 161 140 117 102 91 82 77 63 45 15 344 320 309 304 306 313 318 321 327 330 329 333 338 340 342
157 136 132 134 146 133 148 162 178 175 184 183 173 148 137 136 140 144 149 160 120 61 33 1 333 316 302 307 308 313 320 321 326 326 326 327 330 334
164 164 167 166 169 172 171 167 171 172 174 176 166 162 164 157 148 157 228 237 259 305 358 20 357 339 329 317 307 315 316 317 324 325 320 317 322 331
165 177 183 185 187 185 183 181 181 184 185 181 177 180 183 188 188 192 218 245 264 283 305 324 332 315 289 279 339 308 310 314 319 319 315 311 314 328
179 190 191 192 193 191 189 187 188 186 184 184 188 191 194 200 203 208 218 238 261 274 287 300 298 299 303 311 313 310 310 312 313 313 314 312 310 316
195 195 195 191 190 191 191 190 186 181 184 187 193 196 198 204 210 213 222 244 256 269 279 289 297 294 295 302 308 318 304 307 311 309 311 307 305 304
193 195 195 193 190 188 187 186 183 182 183 185 191 195 196 198 205 215 224 221 254 268 280 294 307 279 284 294 296 307 324 304 297 303 312 311 313 310
194 194 193 191 189 185 182 182 182 182 184 190 191 192 194 199 203 213 225 235 248 267 282 297 308 296 284 285 290 300 313 324 299 270 269 278 311 309
192 191 186 183 185 182 182 184 185 187 187 190 191 187 186 192 199 207 218 230 249 270 285 293 296 291 284 283 289 297 307 315 318 313 306 285 274 278
Height
1561 1561 1562 1562 1562 1563 1563 1564 1565 1565 1565 1565 1564 1563 1562 1561 1560 1560 1558 1557 1555 1554 1552 1550 1548 1546 1544 1542 1541 1539 1537 1535 1534 1532 1530 1528 1526 1525
1561 1561 1561 1562 1562 1562 1563 1563 1564 1565 1565 1565 1564 1564 1563 1563 1561 1561 1559 1558 1557 1555 1554 1552 1550 1548 1546 1545 1543 1541 1539 1537 1536 1534 1532 1530 1528 1526
1561 1562 1562 1562 1562 1563 1563 1563 1563 1564 1565 1565 1565 1564 1564 1563 1563 1562 1561 1560 1558 1557 1555 1553 1552 1550 1548 1546 1544 1543 1541 1539 1537 1535 1533 1531 1529 1527
1562 1562 1562 1562 1562 1563 1563 1564 1564 1564 1565 1565 1565 1565 1564 1564 1563 1562 1562 1561 1559 1558 1556 1555 1553 1551 1549 1548 1546 1544 1542 1540 1538 1536 1534 1532 1530 1528
1562 1562 1562 1563 1563 1563 1563 1564 1564 1564 1564 1565 1565 1565 1565 1564 1563 1563 1562 1562 1561 1559 1557 1556 1554 1552 1550 1549 1547 1545 1543 1541 1539 1537 1535 1533 1531 1528
1562 1562 1563 1563 1563 1564 1564 1564 1564 1564 1564 1565 1565 1565 1565 1564 1564 1563 1563 1562 1561 1560 1558 1556 1554 1553 1551 1549 1547 1545 1543 1541 1539 1537 1535 1533 1531 1528
1562 1562 1562 1563 1563 1563 1564 1564 1564 1564 1564 1565 1565 1565 1565 1564 1564 1563 1563 1562 1561 1559 1559 1557 1556 1554 1552 1549 1547 1545 1543 1541 1539 1537 1535 1533 1531 1528
1562 1562 1562 1562 1563 1563 1563 1563 1564 1564 1565 1565 1565 1565 1564 1564 1563 1563 1563 1562 1561 1560 1559 1558 1556 1554 1552 1549 1547 1545 1543 1541 1539 1537 1534 1532 1530 1528
1562 1562 1562 1562 1563 1563 1563 1563 1563 1564 1564 1564 1564 1564 1564 1563 1562 1562 1561 1561 1560 1559 1557 1557 1555 1554 1552 1549 1547 1545 1543 1540 1538 1536 1534 1531 1529 1527
1561 1561 1562 1562 1562 1563 1563 1563 1563 1563 1563 1563 1563 1563 1562 1562 1561 1561 1560 1560 1559 1557 1556 1556 1555 1553 1551 1549 1546 1544 1542 1539 1537 1535 1533 1530 1528 1525
1559 1560 1561 1561 1561 1562 1562 1562 1562 1562 1562 1562 1562 1561 1561 1560 1560 1560 1559 1559 1559 1557 1555 1555 1553 1552 1550 1548 1545 1543 1540 1538 1536 1534 1531 1529 1526 1524
1558 1558 1559 1560 1560 1560 1561 1561 1561 1561 1561 1561 1561 1560 1560 1559 1559 1558 1558 1558 1557 1557 1554 1553 1552 1550 1549 1547 1545 1542 1540 1537 1535 1532 1530 1527 1525 1522
1556 1557 1557 1558 1558 1558 1559 1560 1560 1560 1560 1560 1560 1559 1559 1558 1557 1557 1556 1555 1555 1555 1553 1551 1550 1549 1548 1546 1544 1541 1539 1536 1534 1531 1529 1526 1523 1521
1554 1555 1555 1556 1556 1557 1557 1557 1558 1558 1558 1558 1558 1558 1557 1557 1556 1555 1554 1554 1553 1552 1551 1549 1548 1547 1546 1544 1543 1540 1537 1535 1533 1530 1527 1524 1522 1519
1551 1552 1553 1554 1554 1555 1555 1555 1556 1556 1556 1556 1556 1556 1555 1555 1554 1553 1553 1552 1551 1550 1548 1547 1546 1545 1544 1542 1541 1538 1536 1533 1531 1528 1526 1523 1521 1518
1549 1550 1551 1551 1552 1553 1553 1553 1553 1554 1554 1554 1554 1554 1553 1553 1552 1551 1550 1550 1549 1548 1546 1545 1544 1542 1541 1539 1538 1536 1534 1532 1529 1526 1524 1521 1519 1516
1546 1547 1548 1549 1549 1550 1550 1551 1551 1551 1551 1551 1551 1551 1551 1550 1550 1549 1548 1548 1547 1546 1544 1542 1541 1540 1538 1537 1535 1533 1532 1529 1527 1524 1522 1519 1517 1514
1543 1543 1544 1545 1546 1547 1547 1548 1548 1548 1548 1549 1548 1548 1548 1548 1547 1546 1546 1545 1544 1543 1542 1540 1539 1537 1537 1534 1533 1531 1529 1527 1524 1522 1519 1517 1514 1512
1539 1540 1541 1542 1542 1543 1544 1544 1545 1545 1545 1545 1545 1545 1545 1544 1544 1543 1543 1542 1541 1540 1539 1538 1536 1535 1534 1533 1530 1528 1526 1523 1521 1519 1517 1514 1511 1508
1534 1536 1537 1538 1538 1539 1540 1541 1541 1541 1541 1541 1541 1541 1541 1541 1541 1540 1539 1539 1538 1537 1536 1535 1534 1532 1531 1531 1528 1526 1523 1521 1518 1516 1513 1511 1508 1505
1530 1531 1533 1534 1534 1535 1536 1537 1537 1537 1537 1537 1537 1537 1537 1537 1537 1536 1536 1535 1535 1534 1533 1532 1530 1530 1528 1527 1525 1523 1521 1519 1516 1513 1510 1507 1504 1501
1526 1527 1528 1529 1530 1531 1532 1532 1533 1533 1533 1533 1533 1533 1533 1533 1533 1532 1532 1532 1531 1530 1530 1529 1527 1526 1525 1524 1522 1520 1518 1516 1513 1510 1507 1505 1502 1498
1522 1523 1524 1525 1526 1527 1527 1528 1528 1529 1529 1529 1529 1529 1529 1529 1529 1529 1528 1528 1528 1527 1526 1525 1524 1523 1522 1520 1519 1517 1515 1512 1510 1508 1505 1502 1499 1496